Dewpoint
58 54 44 37 24 32 28 30 33 42 46 45 45 45 47 44 46 43 38 38 43 49 52 59 68 68 66 66 67 69 68 69 69 69 68 69 70 71 69 69 69 69 69 69 69 69 69 69 69
55 46 38 35 26 23 25 30 28 35 46 43 40 41 40 41 38 34 38 38 45 48 54 63 67 68 68 69 69 68 68 68 68 69 69 69 69 69 69 69 69 69 69 69 68 68 68 69 69
50 44 31 23 29 24 25 31 41 47 44 45 37 35 38 40 37 36 36 39 45 49 55 64 67 67 68 68 69 68 68 68 68 68 68 68 68 68 69 69 69 69 68 68 67 67 68 67 68
36 32 22 26 25 26 26 43 47 46 45 41 37 33 32 32 39 36 37 42 46 49 56 64 66 67 67 67 68 67 67 67 66 66 66 67 67 67 67 67 67 67 66 66 66 65 64 66 69
34 30 10 15 18 25 27 30 47 45 45 41 39 33 31 33 34 35 39 42 46 48 56 62 65 65 66 66 66 66 66 66 66 65 65 65 65 65 65 64 64 64 63 63 63 62 61 66 68
28 26 21 11 13 18 18 44 46 44 45 40 35 32 31 33 33 35 37 41 44 49 52 56 62 63 64 65 65 65 65 65 64 64 64 64 63 63 63 62 61 61 61 61 61 60 59 66 64
27 18 16 15 15 15 15 43 44 44 44 42 36 32 30 33 34 35 36 40 44 46 49 48 49 59 61 62 62 62 62 61 61 61 60 60 59 59 59 58 58 57 57 56 57 56 56 57 58
28 25 19 13 5 10 14 44 43 44 42 36 35 33 30 32 35 35 36 38 40 43 45 45 44 48 51 54 57 57 57 56 56 55 54 52 52 53 54 53 53 53 52 51 51 51 53 53 54
29 23 20 15 14 14 26 41 36 36 35 31 30 34 34 35 35 35 36 37 39 40 40 41 42 43 43 44 48 50 50 48 47 45 43 37 33 35 40 47 48 48 47 46 46 45 44 47 52
29 25 19 19 16 17 27 41 36 37 34 31 30 33 34 35 34 34 35 36 37 37 39 38 37 36 31 28 30 30 30 30 31 29 28 30 31 32 34 39 41 41 41 41 40 38 36 32 32
30 24 23 16 23 28 38 39 37 37 35 34 31 32 34 34 34 34 35 35 35 34 36 35 32 31 30 29 31 29 30 30 27 25 26 23 24 24 25 25 24 21 27 17 19 17 14 14 30
26 26 24 23 30 28 30 40 37 38 38 37 32 33 33 33 34 34 34 34 32 31 31 32 31 29 31 31 29 29 29 28 27 26 25 23 24 21 21 22 23 21 19 17 18 16 15 19 22
17 21 20 24 30 28 31 38 38 37 33 33 31 32 32 33 33 35 34 33 30 30 30 30 29 28 27 27 28 27 27 28 28 27 26 25 23 21 22 21 22 22 21 20 19 18 18 18 22
15 19 18 25 27 27 26 29 37 33 32 29 29 30 31 32 33 34 33 30 29 28 28 29 28 27 26 25 25 25 26 26 27 27 27 26 25 22 22 22 23 22 22 22 20 20 20 20 21
19 18 17 20 26 25 29 26 30 32 31 29 29 29 30 31 33 33 32 29 28 28 28 27 28 26 24 24 25 26 25 26 26 26 26 27 26 25 24 23 23 23 23 23 20 20 21 22 22
18 18 12 11 25 26 20 8 25 31 30 29 29 28 29 31 32 31 30 29 28 27 26 26 24 26 25 24 25 24 25 25 25 26 26 26 26 25 24 23 23 23 24 23 21 20 20 21 21
16 7 13 12 24 25 23 11 24 31 31 30 29 28 29 31 29 29 28 27 27 25 25 25 25 25 25 24 25 24 23 23 23 24 24 23 25 25 23 23 24 24 23 23 20 22 21 21 21
4 12 11 9 17 26 25 24 24 28 30 30 29 29 29 29 28 27 26 26 26 25 25 24 24 24 24 25 24 24 23 23 23 23 24 24 23 22 21 22 22 23 22 22 22 20 22 22 21
6 10 8 8 12 24 23 21 23 25 27 28 29 29 29 28 26 25 25 25 24 24 24 23 23 23 23 22 21 20 20 20 21 22 22 23 23 23 21 21 20 20 19 19 18 22 20 21 21
14 9 4 10 8 23 21 21 23 24 26 27 28 28 29 26 24 24 23 22 22 23 23 22 22 22 22 22 22 21 19 20 21 21 20 21 21 21 20 20 20 18 17 16 17 17 19 20 22
16 14 10 7 10 14 8 10 6 18 24 26 27 28 29 25 23 23 21 20 20 21 22 22 22 22 22 23 21 21 20 20 18 18 19 20 20 21 20 19 19 18 19 17 17 17 17 16 20
17 18 17 17 15 11 9 9 5 4 18 23 24 26 28 26 24 22 21 19 19 20 21 22 22 23 23 21 19 17 16 15 18 18 18 19 19 19 19 19 18 18 20 17 16 16 16 18 16
18 15 16 20 21 19 11 12 12 11 8 15 22 24 26 26 23 21 21 19 19 20 21 22 22 23 22 21 20 18 17 19 18 19 18 18 19 20 20 19 19 18 19 17 16 15 16 17 18
20 18 20 21 21 16 12 9 10 14 20 19 20 23 25 24 22 21 21 20 20 20 20 21 22 22 22 22 20 19 19 18 17 18 17 18 19 20 20 18 18 18 18 17 17 16 15 16 17
19 20 19 16 15 14 11 11 16 19 17 17 18 20 24 22 19 19 19 20 20 19 20 21 22 22 22 22 21 20 19 17 16 16 17 17 17 17 17 16 16 16 16 16 15 15 15 16 16
20 23 21 13 11 13 14 14 17 15 17 19 21 20 20 16 16 17 18 18 17 17 18 18 19 19 19 20 20 19 18 18 18 17 17 17 17 16 16 15 14 14 14 14 13 14 15 14 15
19 19 25 24 24 21 18 15 17 15 16 17 18 19 18 17 16 16 16 17 17 17 17 17 18 17 17 17 18 17 18 18 17 16 16 16 16 13 14 13 12 12 12 11 12 13 11 12 12
26 22 21 24 15 15 15 12 12 10 13 15 15 15 17 18 18 17 18 18 18 18 18 17 17 15 14 14 14 15 15 15 15 15 14 14 13 12 12 11 11 10 10 10 9 10 10 10 12
16 19 22 26 25 19 17 10 9 8 15 13 16 16 14 15 15 17 17 18 18 18 18 17 16 14 13 13 13 14 14 14 14 14 14 13 12 12 11 11 10 10 9 8 8 8 9 8 9
21 25 25 21 21 23 21 5 9 11 14 17 16 18 16 16 15 15 16 17 18 18 18 18 17 16 15 14 13 13 13 12 12 12 12 13 11 11 11 11 11 10 10 9 8 8 7 8 8
Lifted_Index
8 9 10 9 7 6 5 5 5 4 2 1 1 1 1 1 1 1 2 2 1 1 1 0 -1 -1 -1 -1 -1 -2 -2 -2 -2 -2 -2 -2 -2 -2 -2 -2 -2 -3 -2 -2 -2 -2 -2 -2 -2
8 9 9 8 6 5 4 5 5 4 2 1 1 1 1 1 1 2 2 2 2 1 1 0 -1 -1 -1 -2 -2 -2 -2 -1 -2 -2 -2 -2 -2 -2 -2 -2 -2 -2 -2 -2 -1 -1 -1 -2 -2
9 9 9 7 6 4 4 4 4 3 2 1 1 1 1 1 1 2 2 2 2 2 1 1 -0 -1 -1 -2 -2 -1 -1 -1 -1 -1 -1 -1 -1 -1 -1 -1 -1 -1 -1 -1 -1 -0 -1 -1 -2
10 10 9 7 5 4 4 4 3 2 1 1 1 1 2 2 2 2 2 2 2 2 2 1 1 -0 -1 -1 -1 -1 -1 -0 -0 -0 -0 -0 -0 -0 -0 -0 -0 0 0 1 1 1 0 -1 -2
10 9 8 6 5 5 5 4 3 2 1 1 1 2 2 2 2 2 2 2 2 2 2 2 2 1 1 0 0 0 1 1 1 1 1 1 1 1 1 1 1 1 2 2 2 1 1 -0 -1
9 8 6 5 4 5 5 5 3 2 1 1 1 2 2 3 3 3 3 3 3 3 3 3 2 2 2 1 1 1 2 2 1 2 2 2 2 3 3 2 2 2 2 2 2 2 1 0 -0
8 7 6 5 4 5 5 4 3 2 1 1 1 2 3 3 3 3 3 3 3 3 3 3 3 3 3 2 2 2 2 2 2 2 2 2 2 3 3 3 2 2 2 2 2 2 1 1 0
8 7 5 5 5 5 5 4 3 2 2 1 2 2 3 3 3 3 3 3 4 4 4 3 3 3 3 3 3 3 3 2 2 2 2 2 2 2 3 3 3 2 2 2 2 2 2 1 1
7 6 5 5 5 5 5 4 3 2 2 2 2 2 3 3 3 3 3 3 4 4 4 4 4 4 4 4 4 3 3 3 2 2 2 2 2 2 2 2 3 3 3 3 3 3 2 2 2
7 6 5 6 7 7 6 5 4 3 2 2 2 2 2 3 3 3 3 3 4 4 4 4 4 4 4 4 4 4 3 3 3 2 2 2 2 2 2 2 2 3 3 3 3 4 3 3 3
7 6 6 7 8 8 7 5 4 3 2 2 2 2 2 2 2 3 3 3 4 3 4 4 4 4 4 4 4 4 4 3 3 3 3 3 3 3 2 2 2 3 3 3 3 4 4 4 4
7 7 7 8 8 8 7 5 4 3 3 3 2 2 2 2 2 3 3 3 3 3 3 4 4 4 4 4 4 4 4 4 3 3 4 4 4 4 3 3 3 3 4 4 4 4 5 5 5
8 8 8 8 8 8 7 6 4 4 4 3 3 3 3 3 3 3 3 3 3 3 3 4 4 4 4 4 5 5 4 4 4 4 5 5 5 5 5 5 5 5 6 6 6 6 7 7 8
8 8 8 8 8 8 7 6 5 5 4 4 4 4 4 3 3 3 3 3 3 3 3 4 4 5 6 5 6 6 6 5 6 6 7 8 8 8 8 8 8 9 10 11 11 11 11 12 12
9 8 7 7 7 7 7 6 6 5 5 5 5 5 5 4 3 3 3 3 3 3 4 4 5 6 7 7 8 8 8 8 9 10 11 12 13 13 13 13 13 14 15 15 15 15 16 16 16
7 7 6 6 7 7 6 5 5 6 6 5 5 5 5 4 4 4 4 4 4 4 5 5 6 7 8 9 10 11 11 12 12 13 15 16 16 17 17 16 17 18 18 18 18 18 18 18 18
5 5 4 5 6 6 6 5 5 6 6 5 5 5 5 5 4 4 4 5 6 6 6 7 8 8 10 11 13 13 14 15 15 16 17 18 18 18 18 18 18 19 19 18 18 18 18 18 18
4 4 4 5 6 6 6 5 6 6 6 6 6 6 6 5 5 5 5 7 7 8 8 9 9 11 12 13 14 14 15 16 17 17 18 18 19 19 19 18 18 18 18 18 18 18 18 17 18
4 3 4 4 5 5 5 5 6 6 7 6 6 6 6 6 5 5 6 7 8 9 9 10 11 13 14 14 14 14 15 16 17 18 18 19 19 19 19 18 18 18 18 18 18 18 17 18 18
3 3 3 4 4 4 4 4 5 6 7 7 6 7 7 6 6 6 6 7 8 9 9 10 12 14 15 15 15 15 16 17 17 18 19 19 19 19 19 18 18 18 18 18 18 18 17 18 18
3 3 3 3 3 3 3 3 4 5 6 6 6 6 6 6 6 6 6 7 8 9 10 11 14 15 16 17 17 16 16 17 17 18 19 19 20 19 19 19 19 19 18 18 18 18 18 18 18
3 3 4 4 3 3 3 3 4 5 5 5 5 6 6 6 6 6 6 7 8 10 11 13 15 16 18 18 17 17 16 16 17 18 19 20 20 20 20 20 19 19 19 19 19 18 18 18 18
4 4 5 5 4 3 3 3 4 4 4 3 4 4 5 5 6 6 7 8 10 11 12 14 16 17 18 19 18 18 17 17 18 19 19 20 20 21 21 20 20 20 20 19 19 19 19 18 18
4 4 4 4 3 3 3 3 4 5 4 3 3 3 4 5 6 7 8 9 11 13 14 15 17 18 19 20 20 19 19 19 19 19 19 20 20 21 21 21 20 20 20 20 20 20 19 19 19
4 3 2 2 2 2 2 3 3 5 5 5 4 4 4 5 7 8 8 9 11 13 14 15 17 18 19 20 20 20 20 19 19 19 19 19 20 20 20 21 21 20 20 20 20 20 20 20 20
3 2 1 1 1 1 2 2 3 5 5 5 5 4 5 6 7 8 9 10 11 13 14 15 16 18 19 19 19 19 20 20 19 20 20 20 20 20 20 20 20 20 20 20 20 20 20 20 20
2 2 2 1 1 1 1 2 3 4 5 5 5 5 6 7 8 9 10 11 13 14 15 16 17 18 19 19 19 19 20 20 20 20 20 20 20 20 20 20 20 20 20 20 20 20 20 21 21
2 2 2 1 1 1 1 2 2 3 3 4 5 6 8 9 10 11 12 13 14 16 17 18 18 19 19 20 20 20 20 20 20 20 20 20 20 20 20 20 19 19 19 20 20 20 21 21 21
2 2 2 1 1 1 1 2 3 4 5 6 7 9 10 11 12 13 14 15 16 17 18 19 19 19 20 20 20 20 20 20 20 20 20 20 20 20 20 20 19 19 19 20 20 21 21 21 21
2 2 2 1 1 1 1 2 5 6 7 8 10 11 12 13 14 15 15 16 17 18 18 19 19 20 20 20 20 20 20 20 20 20 20 20 20 20 20 20 19 19 20 20 21 21 21 21 21